Weather History for EIDW - October, 2011

Change the Weather History Date:

Thursday, October 6, 2011

  Actual Average Record
Temperature  
Mean Temperature 48 °F -  
Max Temperature 54 °F 56 °F 66 °F (2013)
Min Temperature 43 °F 45 °F 35 °F (2008)
Degree Days  
Heating Degree Days 16    
Moisture  
Dew Point 42 °F    
Average Humidity 80    
Maximum Humidity 93    
Minimum Humidity 53    
Precipitation  
Precipitation 0.04 in 0.09 in - ()
Sea Level Pressure  
Sea Level Pressure 29.78 in    
Wind  
Wind Speed 23 mph ()    
Max Wind Speed 37 mph    
Max Gust Speed 53 mph    
Visibility 7.0 miles    
Events Rain    
Averages and records for this station are not official NWS values.
T = Trace of Precipitation, MM = Missing Value Source: Averaged Metar Reports

Daily Weather History Graph

Daily Weather History Graph

Search for Another Location

Airport or City:

Trip Planner

Search our weather history database for the weather conditions in past years. The results will help you decide how hot, cold, wet, or windy it might be!

Date:

Astronomy

Oct. 06, 2011 Rise Set
Actual Time 7:34 AM IST 6:50 PM IST
Civil Twilight 7:00 AM IST 7:25 PM IST
Nautical Twilight 6:19 AM IST 8:05 PM IST
Astronomical Twilight 5:38 AM IST 8:47 PM IST
Moon 4:34 PM IST (10/6) 1:24 AM IST (10/6)
Length of Visible Light 12h 25m
Length of Day
11h 15m
Waxing Gibbous, 73% of the Moon is Illuminated
Oct 6
Waxing Gibbous
Oct 12
Full
Oct 20
Last Quarter
Oct 26
New
Nov 2
First Quarter

Hourly Weather History & Observations

Time (IST) Temp. Windchill Dew Point Humidity Pressure Visibility Wind Dir Wind Speed Gust Speed Precip Events Conditions
12:00 AM 50.0 °F - 44.6 °F 82% 29.74 in 6.2 mi WSW 20.7 mph - N/A   Scattered Clouds
12:30 AM 50.0 °F - 44.6 °F 82% 29.71 in 6.2 mi WSW 21.9 mph - N/A   Scattered Clouds
1:00 AM 49 °F - 44 °F 76% 29.74 in 19 mi WSW 24.6 mph - -   Partly Cloudy
1:00 AM 50.0 °F - 44.6 °F 82% 29.71 in 6.2 mi WSW 24.2 mph 35.7 mph N/A   Mostly Cloudy
1:30 AM 48.2 °F - 44.6 °F 87% 29.74 in 6.2 mi West 23.0 mph - N/A   Mostly Cloudy
2:00 AM 48.2 °F - 42.8 °F 82% 29.74 in 6.2 mi West 24.2 mph - N/A   Mostly Cloudy
2:30 AM 48.2 °F - 42.8 °F 82% 29.74 in 6.2 mi West 21.9 mph - N/A   Mostly Cloudy
3:00 AM 48.2 °F - 44.6 °F 87% 29.74 in 6.2 mi WSW 18.4 mph - N/A Rain Light Rain Showers
3:30 AM 46.4 °F 38.1 °F 42.8 °F 87% 29.74 in 6.2 mi WSW 24.2 mph - N/A   Scattered Clouds
4:00 AM 46.4 °F 38.7 °F 41.0 °F 81% 29.74 in 6.2 mi WSW 20.7 mph - N/A   Scattered Clouds
4:30 AM 44.6 °F 36.4 °F 41.0 °F 87% 29.74 in 6.2 mi WSW 20.7 mph - N/A   Scattered Clouds
5:00 AM 44.6 °F 36.1 °F 39.2 °F 81% 29.71 in 6.2 mi WSW 21.9 mph - N/A   Scattered Clouds
5:30 AM 44.6 °F 35.7 °F 39.2 °F 81% 29.71 in 6.2 mi WSW 24.2 mph - N/A   Scattered Clouds
6:00 AM 44.6 °F 35.5 °F 39.2 °F 81% 29.74 in 6.2 mi West 25.3 mph - N/A   Scattered Clouds
6:30 AM 44.6 °F 35.5 °F 39.2 °F 81% 29.74 in 6.2 mi West 25.3 mph - N/A   Scattered Clouds
7:00 AM 44 °F - 38 °F 73% 29.77 in 19 mi WSW 20.1 mph - -   Partly Cloudy
7:00 AM 44.6 °F 36.4 °F 39.2 °F 81% 29.74 in 6.2 mi WSW 20.7 mph - N/A   Scattered Clouds
7:30 AM 44.6 °F 35.7 °F 39.2 °F 81% 29.74 in 6.2 mi WSW 24.2 mph - N/A   Scattered Clouds
8:00 AM 44.6 °F 36.1 °F 39.2 °F 81% 29.74 in 6.2 mi WSW 21.9 mph - N/A   Partly Cloudy
8:30 AM 44.6 °F 36.4 °F 39.2 °F 81% 29.77 in 6.2 mi WSW 20.7 mph - N/A   Partly Cloudy
9:00 AM 46.4 °F 38.7 °F 41.0 °F 81% 29.77 in 6.2 mi WSW 20.7 mph - N/A   Partly Cloudy
9:30 AM 48.2 °F - 41.0 °F 76% 29.77 in 6.2 mi WSW 23.0 mph 34.5 mph N/A   Partly Cloudy
10:00 AM 48.2 °F - 42.8 °F 82% 29.77 in 6.2 mi WSW 23.0 mph - N/A Rain Light Rain Showers
10:30 AM 50.0 °F - 41.0 °F 71% 29.77 in 6.2 mi WSW 23.0 mph - N/A   Partly Cloudy
11:00 AM 50.0 °F - 42.8 °F 76% 29.77 in 6.2 mi WSW 25.3 mph - N/A   Partly Cloudy
11:30 AM 50.0 °F - 39.2 °F 66% 29.77 in 6.2 mi West 31.1 mph - N/A   Scattered Clouds
12:00 PM 51.8 °F - 39.2 °F 62% 29.77 in 6.2 mi West 28.8 mph - N/A   Scattered Clouds
12:30 PM 51.8 °F - 42.8 °F 71% 29.77 in 6.2 mi West 29.9 mph - N/A   Scattered Clouds
1:00 PM 53 °F - 41 °F 53% 29.78 in 19 mi West 29.1 mph - -   Mostly Cloudy
1:00 PM 51.8 °F - 41.0 °F 67% 29.77 in 6.2 mi West 31.1 mph - N/A   Scattered Clouds
1:30 PM 53.6 °F - 41.0 °F 62% 29.74 in 6.2 mi West 36.8 mph 51.8 mph N/A   Scattered Clouds
2:00 PM 53.6 °F - 37.4 °F 54% 29.74 in 6.2 mi West 35.7 mph - N/A Rain Light Rain Showers
2:30 PM 46.4 °F 36.5 °F 41.0 °F 81% 29.77 in 6.2 mi West 34.5 mph 52.9 mph N/A Rain Light Rain Showers
3:00 PM 46.4 °F 36.9 °F 42.8 °F 87% 29.77 in 6.2 mi West 32.2 mph 46.0 mph N/A   Mostly Cloudy
3:30 PM 50.0 °F - 42.8 °F 76% 29.74 in 6.2 mi West 27.6 mph 39.1 mph N/A   Scattered Clouds
4:00 PM 51.8 °F - 42.8 °F 71% 29.77 in 6.2 mi West 29.9 mph 41.4 mph N/A   Mostly Cloudy
4:30 PM 51.8 °F - 41.0 °F 67% 29.74 in 6.2 mi West 35.7 mph - N/A   Scattered Clouds
5:00 PM 50.0 °F - 44.6 °F 82% 29.77 in 6.2 mi West 34.5 mph 48.3 mph N/A Rain Light Rain Showers
5:30 PM 50.0 °F - 44.6 °F 82% 29.77 in 6.2 mi West 33.4 mph - N/A   Scattered Clouds
6:00 PM 48.2 °F - 42.8 °F 82% 29.80 in 6.2 mi West 28.8 mph - N/A   Scattered Clouds
6:30 PM 48.2 °F - 44.6 °F 87% 29.80 in 6.2 mi West 26.5 mph - N/A   Scattered Clouds
7:00 PM 48 °F - 45 °F 87% 29.84 in 12 mi West 26.8 mph - - Rain Light Rain Showers
7:00 PM 48.2 °F - 44.6 °F 87% 29.83 in 6.2 mi West 26.5 mph - N/A Rain Light Rain Showers
7:30 PM 48.2 °F - 44.6 °F 87% 29.83 in 6.2 mi West 26.5 mph - N/A   Mostly Cloudy
8:00 PM 48.2 °F - 44.6 °F 87% 29.86 in 6.2 mi West 25.3 mph 36.8 mph N/A Rain Light Rain Showers
8:30 PM 50.0 °F - 44.6 °F 82% 29.86 in 6.2 mi West 27.6 mph - N/A   Mostly Cloudy
9:00 PM 48.2 °F - 46.4 °F 93% 29.89 in 6.2 mi West 24.2 mph - N/A   Mostly Cloudy
9:30 PM 48.2 °F - 46.4 °F 93% 29.89 in 6.2 mi West 24.2 mph - N/A Rain Light Rain Showers
10:00 PM 48.2 °F - 46.4 °F 93% 29.92 in 6.2 mi West 23.0 mph - N/A   Mostly Cloudy
10:30 PM 48.2 °F - 46.4 °F 93% 29.92 in 6.2 mi West 19.6 mph - N/A Rain Light Rain Showers
11:00 PM 48.2 °F - 46.4 °F 93% 29.95 in 6.2 mi West 21.9 mph - N/A Rain Light Rain Showers
11:30 PM 48.2 °F - 46.4 °F 93% 29.95 in 6.2 mi West 18.4 mph - N/A Rain Light Rain Showers